When you browse on this site, cookies collect data to enhance your experience and personalize the content and advertising you see.
Visit our Privacy Policy to learn more. By continuing to use the site, you agree to this use of cookies and data.
  • en France
  • Liste des pays
  • À 7 jours
  • Température de l'eau
  • Carte satellitaire
  • Carte météo
  • Widgets météo
  • user-avatar
    Se connecter

    Météo par heure à Kitzbühel

    Ce jour, 27 Juin, Jeudi

    Heure Température Précipitation Vent Pression Humidité
    00:00 +21°C° 0 mm 1 m/s 685 mmHg 66%
    01:00 +21°C° 0 mm 1 m/s 684 mmHg 63%
    02:00 +21°C° 0 mm 1 m/s 684 mmHg 62%
    03:00 +20°C° 0 mm 1 m/s 684 mmHg 61%
    04:00 +20°C° 0 mm 1 m/s 683 mmHg 60%
    05:00 +22°C° 0 mm 1 m/s 684 mmHg 60%
    06:00 +24°C° 0 mm 1 m/s 684 mmHg 59%
    07:00 +23°C° 0 mm 0 m/s 685 mmHg 58%
    08:00 +27°C° 0 mm 1 m/s 685 mmHg 52%
    09:00 +29°C° 0 mm 1 m/s 685 mmHg 46%
    10:00 +31°C° 0 mm 2 m/s 685 mmHg 40%
    11:00 +31°C° 0 mm 2 m/s 685 mmHg 41%
    12:00 +32°C° 0 mm 2 m/s 685 mmHg 42%
    13:00 +33°C° 0 mm 3 m/s 685 mmHg 44%
    14:00 +31°C° 0.6 mm 3 m/s 685 mmHg 49%
    15:00 +30°C° 0.6 mm 2 m/s 684 mmHg 55%
    16:00 +29°C° 0.6 mm 2 m/s 684 mmHg 61%
    17:00 +27°C° 1.1 mm 2 m/s 683 mmHg 71%
    18:00 +26°C° 1.1 mm 1 m/s 683 mmHg 81%
    19:00 +24°C° 1.1 mm 1 m/s 682 mmHg 91%
    20:00 +22°C° 0.5 mm 1 m/s 682 mmHg 92%
    21:00 +19°C° 0.5 mm 0 m/s 683 mmHg 93%
    22:00 +17°C° 0.5 mm 0 m/s 683 mmHg 94%
    23:00 +17°C° 0.1 mm 0 m/s 683 mmHg 95%

    Demain, 28 Juin, Vendredi

    Heure Température Précipitation Vent Pression Humidité
    00:00 +17°C° 0.1 mm 0 m/s 683 mmHg 95%
    01:00 +18°C° 0.1 mm 1 m/s 683 mmHg 96%
    02:00 +16°C° 0 mm 0 m/s 682 mmHg 96%
    03:00 +15°C° 0 mm 0 m/s 682 mmHg 97%
    04:00 +15°C° 0 mm 0 m/s 682 mmHg 97%
    05:00 +16°C° 0 mm 0 m/s 682 mmHg 96%
    06:00 +17°C° 0 mm 0 m/s 682 mmHg 95%
    07:00 +18°C° 0 mm 0 m/s 682 mmHg 93%
    08:00 +22°C° 0 mm 1 m/s 683 mmHg 83%
    09:00 +23°C° 0 mm 1 m/s 683 mmHg 73%
    10:00 +25°C° 0 mm 1 m/s 683 mmHg 63%
    11:00 +26°C° 0 mm 2 m/s 683 mmHg 55%
    12:00 +27°C° 0 mm 2 m/s 683 mmHg 47%
    13:00 +28°C° 0 mm 2 m/s 683 mmHg 39%
    14:00 +27°C° 0 mm 2 m/s 683 mmHg 40%
    15:00 +27°C° 0 mm 2 m/s 682 mmHg 42%
    16:00 +27°C° 0 mm 2 m/s 682 mmHg 43%
    17:00 +25°C° 0 mm 2 m/s 682 mmHg 53%
    18:00 +23°C° 0 mm 2 m/s 682 mmHg 63%
    19:00 +22°C° 0 mm 1 m/s 682 mmHg 73%
    20:00 +20°C° 0 mm 1 m/s 681 mmHg 79%
    21:00 +18°C° 0 mm 1 m/s 681 mmHg 85%
    22:00 +15°C° 0 mm 1 m/s 681 mmHg 91%
    23:00 +14°C° 0 mm 1 m/s 681 mmHg 90%

    Après-demain, 29 Juin, Samedi

    Heure Température Précipitation Vent Pression Humidité
    00:00 +14°C° 0 mm 1 m/s 681 mmHg 89%
    01:00 +14°C° 0 mm 1 m/s 681 mmHg 87%
    02:00 +14°C° 0 mm 1 m/s 681 mmHg 86%
    03:00 +13°C° 0 mm 1 m/s 681 mmHg 84%
    04:00 +13°C° 0 mm 1 m/s 680 mmHg 82%
    05:00 +15°C° 0 mm 1 m/s 681 mmHg 75%
    06:00 +17°C° 0 mm 0 m/s 681 mmHg 68%
    07:00 +19°C° 0 mm 0 m/s 682 mmHg 61%
    08:00 +21°C° 0 mm 0 m/s 682 mmHg 54%
    09:00 +25°C° 0 mm 1 m/s 682 mmHg 46%
    10:00 +27°C° 0 mm 1 m/s 683 mmHg 39%
    11:00 +28°C° 0 mm 1 m/s 683 mmHg 35%
    12:00 +29°C° 0 mm 1 m/s 683 mmHg 32%
    13:00 +30°C° 0 mm 1 m/s 683 mmHg 29%
    14:00 +30°C° 0 mm 2 m/s 682 mmHg 32%
    15:00 +30°C° 0 mm 2 m/s 682 mmHg 35%
    16:00 +29°C° 0 mm 2 m/s 682 mmHg 38%
    17:00 +27°C° 0 mm 2 m/s 682 mmHg 51%
    18:00 +26°C° 0 mm 1 m/s 681 mmHg 64%
    19:00 +24°C° 0 mm 1 m/s 681 mmHg 77%
    20:00 +22°C° 0 mm 1 m/s 681 mmHg 79%
    21:00 +21°C° 0 mm 1 m/s 681 mmHg 81%
    22:00 +18°C° 0 mm 2 m/s 681 mmHg 83%
    23:00 +18°C° 0 mm 2 m/s 681 mmHg 83%

    30 Juin, Dimanche

    Heure Température Précipitation Vent Pression Humidité
    00:00 +18°C° 0 mm 2 m/s 681 mmHg 82%
    01:00 +17°C° 0 mm 2 m/s 681 mmHg 81%
    02:00 +17°C° 0 mm 2 m/s 680 mmHg 80%
    03:00 +17°C° 0 mm 2 m/s 680 mmHg 79%
    04:00 +17°C° 0 mm 2 m/s 680 mmHg 78%
    05:00 +20°C° 0 mm 1 m/s 680 mmHg 72%
    06:00 +22°C° 0 mm 1 m/s 681 mmHg 67%
    07:00 +22°C° 0 mm 0 m/s 681 mmHg 61%
    08:00 +26°C° 0 mm 1 m/s 682 mmHg 54%
    09:00 +29°C° 0 mm 1 m/s 682 mmHg 46%
    10:00 +31°C° 0 mm 1 m/s 683 mmHg 39%
    11:00 +32°C° 0 mm 1 m/s 683 mmHg 36%
    12:00 +32°C° 0 mm 1 m/s 683 mmHg 33%
    13:00 +34°C° 0 mm 2 m/s 683 mmHg 30%
    14:00 +34°C° 0 mm 2 m/s 683 mmHg 32%
    15:00 +32°C° 0 mm 2 m/s 682 mmHg 33%
    16:00 +32°C° 0 mm 2 m/s 682 mmHg 35%
    17:00 +30°C° 0 mm 2 m/s 682 mmHg 46%
    18:00 +28°C° 0 mm 1 m/s 682 mmHg 57%
    19:00 +26°C° 0 mm 1 m/s 681 mmHg 68%
    20:00 +24°C° 0 mm 1 m/s 681 mmHg 70%
    21:00 +23°C° 0 mm 1 m/s 681 mmHg 72%
    22:00 +21°C° 0 mm 1 m/s 681 mmHg 74%
    23:00 +20°C° 0 mm 1 m/s 681 mmHg 72%

    1 Juillet, Lundi

    Heure Température Précipitation Vent Pression Humidité
    00:00 +19°C° 0 mm 2 m/s 681 mmHg 70%
    01:00 +19°C° 0 mm 2 m/s 681 mmHg 68%
    02:00 +19°C° 0 mm 2 m/s 680 mmHg 63%
    03:00 +18°C° 0 mm 2 m/s 680 mmHg 59%
    04:00 +18°C° 0 mm 2 m/s 680 mmHg 55%
    05:00 +21°C° 0 mm 1 m/s 680 mmHg 55%
    06:00 +23°C° 0 mm 1 m/s 680 mmHg 54%
    07:00 +24°C° 0 mm 1 m/s 681 mmHg 54%
    08:00 +27°C° 0 mm 1 m/s 681 mmHg 47%
    09:00 +29°C° 0 mm 1 m/s 682 mmHg 41%
    10:00 +31°C° 0 mm 1 m/s 682 mmHg 34%
    11:00 +31°C° 0 mm 1 m/s 682 mmHg 32%
    12:00 +32°C° 0 mm 2 m/s 682 mmHg 31%
    13:00 +34°C° 0 mm 2 m/s 682 mmHg 29%
    14:00 +32°C° 0.1 mm 2 m/s 682 mmHg 34%
    15:00 +31°C° 0.1 mm 2 m/s 682 mmHg 39%
    16:00 +30°C° 0.1 mm 2 m/s 681 mmHg 44%
    17:00 +27°C° 1.5 mm 2 m/s 681 mmHg 59%
    18:00 +24°C° 1.5 mm 1 m/s 681 mmHg 74%
    19:00 +21°C° 1.5 mm 1 m/s 680 mmHg 90%
    20:00 +20°C° 4.2 mm 1 m/s 681 mmHg 92%
    21:00 +18°C° 4.2 mm 2 m/s 681 mmHg 94%
    22:00 +17°C° 4.2 mm 2 m/s 681 mmHg 97%
    23:00 +17°C° 0.1 mm 2 m/s 681 mmHg 94%

    2 Juillet, Mardi

    Heure Température Précipitation Vent Pression Humidité
    00:00 +16°C° 0.1 mm 2 m/s 680 mmHg 92%
    01:00 +16°C° 0.1 mm 1 m/s 680 mmHg 90%
    02:00 +16°C° 0 mm 1 m/s 679 mmHg 89%
    03:00 +16°C° 0 mm 1 m/s 679 mmHg 88%
    04:00 +14°C° 0 mm 0 m/s 679 mmHg 87%
    05:00 +18°C° 0 mm 1 m/s 679 mmHg 86%
    06:00 +19°C° 0 mm 1 m/s 680 mmHg 86%
    07:00 +20°C° 0 mm 1 m/s 680 mmHg 85%
    08:00 +21°C° 0.3 mm 1 m/s 680 mmHg 82%
    09:00 +22°C° 0.3 mm 1 m/s 680 mmHg 79%
    10:00 +21°C° 0.3 mm 2 m/s 680 mmHg 76%
    11:00 +23°C° 0.4 mm 2 m/s 680 mmHg 75%
    12:00 +23°C° 0.4 mm 2 m/s 680 mmHg 73%
    13:00 +24°C° 0.4 mm 2 m/s 680 mmHg 72%
    14:00 +23°C° 0.3 mm 2 m/s 680 mmHg 75%
    15:00 +23°C° 0.3 mm 2 m/s 680 mmHg 78%
    16:00 +21°C° 0.3 mm 2 m/s 680 mmHg 81%
    17:00 +21°C° 0.2 mm 1 m/s 680 mmHg 85%
    18:00 +21°C° 0.2 mm 1 m/s 680 mmHg 89%
    19:00 +20°C° 0.2 mm 1 m/s 680 mmHg 93%
    20:00 +19°C° 0.1 mm 1 m/s 680 mmHg 93%
    21:00 +16°C° 0.1 mm 0 m/s 680 mmHg 94%
    22:00 +16°C° 0.1 mm 0 m/s 680 mmHg 95%
    23:00 +15°C° 0 mm 0 m/s 680 mmHg 96%
    Voir plus